Regional Weather Roundup
Issued by NWS Boston, MA

Current Version | Previous Version | Text Only | Print | Product List | Glossary Off
Versions: 1 2 3 4 5 6 7 8 9 10 11 12 13 14 15 16 17 18 19 20 21 22 23 24 25 26 27 28 29 30 31 32 33 34 35 36 37 38 39 40 41 42 43 44 45 46 47 48 49 50
000 ASUS41 KBOX 101800 RWRBOX REGIONAL WEATHER ROUNDUP NATIONAL WEATHER SERVICE BOSTON/NORTON MA 100 PM EST MON DEC 10 2018 NOTE: "FAIR" INDICATES FEW OR NO CLOUDS BELOW 12,000 FEET WITH NO SIGNIFICANT WEATHER AND/OR OBSTRUCTIONS TO VISIBILITY. MAZALL-101900- EASTERN MASSACHUSETTS CITY SKY/WX TMP DP RH WIND PRES REMARKS BOSTON FAIR 39 14 36 N8 30.08S 6HR MIN TEMP: 29; 6HR MAX TEMP: 39; BEVERLY FAIR 38 15 39 VRB7 30.08S LAWRENCE FAIR 38 14 37 NW9 30.10R WCI 31 BEDFORD NOT AVBL BLUE HILL N/A 35 15 44 VRB6 30.04S WCI 30 NORWOOD FAIR 40 16 37 VRB5 30.08S MARSHFIELD NOT AVBL PLYMOUTH FAIR 37 21 52 N10 30.07R WCI 30 TAUNTON FAIR 40 18 41 VRB6 30.07R NEW BEDFORD FAIR 39 21 48 N7 30.06R $$ MAZALL-101900- CAPE COD AND THE ISLANDS CITY SKY/WX TMP DP RH WIND PRES REMARKS FALMOUTH PTSUNNY 37 25 60 N13 30.05S WCI 29 HYANNIS NOT AVBL CHATHAM CLOUDY 39 22 50 VRB6 30.04S NANTUCKET PTSUNNY 41 23 48 N21 30.02S WCI 32 MARTHAS VNYRD PTSUNNY 40 27 59 N14 30.04S $$ MAZALL-101900- CENTRAL AND WESTERN MASSACHUSETTS CITY SKY/WX TMP DP RH WIND PRES REMARKS WORCESTER FAIR 33 15 47 NW10 30.04F WCI 25 6HR MIN TEMP: 23; 6HR MAX TEMP: 33; FITCHBURG FAIR 36 14 40 N10 30.09S WCI 28 ORANGE FAIR 35 15 44 NW3 30.09F SPRINGFIELD NOT AVBL WESTFIELD FAIR 38 15 39 N7 30.09F NORTH ADAMS CLOUDY 30 18 60 W7 30.12F WCI 23 PITTSFIELD FAIR 33 16 49 NW8 30.06S WCI 26 $$ RIZALL-101900- RHODE ISLAND CITY SKY/WX TMP DP RH WIND PRES REMARKS PROVIDENCE FAIR 38 17 42 NE9 30.08S WCI 31 6HR MIN TEMP: 26; 6HR MAX TEMP: 38; NEWPORT FAIR 38 18 44 N13 30.06S WCI 30 WESTERLY FAIR 41 18 39 N9 30.08S $$ CTZALL-101900- CONNECTICUT CITY SKY/WX TMP DP RH WIND PRES REMARKS BRADLEY INTL FAIR 37 17 44 N9 30.10F WCI 30 6HR MIN TEMP: 17; 6HR MAX TEMP: 37; HARTFORD FAIR 38 18 44 N8 30.11F BRIDGEPORT FAIR 40 17 39 N10 30.10F DANBURY FAIR 37 17 44 N10 30.10F WCI 30 GROTON NOT AVBL NEW HAVEN FAIR 40 18 41 N15 30.11S WCI 32 CHESTER FAIR 37 16 41 N9 30.08S WCI 31 MERIDEN FAIR 38 17 42 N8 30.10F WILLIMANTIC FAIR 37 19 48 N10 30.09F WCI 30 OXFORD FAIR 35 18 49 NW9 30.07F WCI 28 $$ MEZ002-015-021-024-NHZ003-005-008-011-012-014-VTZ005-008-101900- NORTHERN NEW ENGLAND CITY SKY/WX TMP DP RH WIND PRES REMARKS PORTLAND ME FAIR 33 12 41 N9G16 30.08F WCI 25 6HR MIN TEMP: 17; 6HR MAX TEMP: 33; BANGOR ME FAIR 26 5 40 NW20 30.07F WCI 12 CONCORD NH FAIR 33 13 43 NW12 30.09F WCI 24 MANCHESTER NH FAIR 35 13 40 NW13 30.07F WCI 26 NASHUA NH NOT AVBL PORTSMOUTH NH NOT AVBL JAFFREY NH FAIR 32 15 49 N8 30.05S WCI 25 KEENE NH NOT AVBL BURLINGTON VT FAIR 22 8 55 N6 30.20S WCI 14 MT. WASHINGTON NOT AVBL $$ NYZ052-076-101900- EASTERN NEW YORK CITY SKY/WX TMP DP RH WIND PRES REMARKS ALBANY FAIR 37 15 40 W5 30.14F 6HR MIN TEMP: 30; 6HR MAX TEMP: 37; NEW YORK CITY FAIR 38 18 44 N14 30.11F WCI 30 6HR MIN TEMP: 30; 6HR MAX TEMP: 40; $$ ANZALL-101900- MARINE OBSERVATIONS STATION/POSITION TIME TEMP WIND PRES VSBY WAVE AIR SEA DIR/SP/G HT/PER (UTC) (F) (DEG/KT/KT) (MB) (MI) (FT/S) BOSTON BUOY 1650 35 46 350/ 16/ 17 1017.9 2/ 4 BUZZARDS BAY 1700 36 360/ 14/ 17 1017.9F NANTUCKET SOUND 1740 37 40 20/ 14/ 17 N/A MASS BAY-STELLWA 1704 34 44 350/ 14/ 17 1017.3F 1 7/8 2/ 4 ISLE OF SHOALS 1700 33 310/ 7/ 8 1018.2F S OF BLOCK IS 1743 50 N/A 4/ 5 $$ ......................KEY......................... SKY/WX - SKY CONDITION/PRESENT WEATHER TMP - TEMPERATURE IN FAHRENHEIT DWPT - DEWPOINT IN FAHRENHEIT RH - RELATIVE HUMIDITY IN PERCENT WIND - DIRECTION AND SPEED IN MPH PRES - MEAN SEA LEVEL PRESSURE IN INCHES OF HG WCI - WIND CHILL INDEX VSB - VISIBILITY IN MILES HX - HEAT INDEX TC - TEMPERATURE IN CELSIUS VRB - VARIABLE WIND DIRECTION N/A - NOT AVAILABLE

USA.gov is the U.S. government's official web portal to all federal, state and local government web resources and services.